| time (UTC) | temp F | wind direction | speed MPH | gust MPH | rain 1hr in | rain 24hr in | rain mn in | humidity % | barometer mb |
| 20260506024516 | 44 | 0.0 | 1.0 | 0.01 | 0.50 | 0.50 | 84 | 1012.1 | |
| 20260506023516 | 44 | 338 | 2.0 | 4.0 | 0.01 | 0.50 | 0.50 | 85 | 1012.2 |
| 20260506022516 | 44 | 293 | 1.0 | 3.0 | 0.05 | 0.50 | 0.50 | 85 | 1012.2 |
| 20260506021516 | 44 | 0 | 1.0 | 4.0 | 0.06 | 0.50 | 0.50 | 85 | 1012.1 |
| 20260506020536 | 44 | 0 | 2.0 | 5.0 | 0.07 | 0.50 | 0.50 | 85 | 1012.2 |
| 20260506015536 | 44 | 315 | 1.0 | 3.0 | 0.07 | 0.50 | 0.50 | 85 | 1012.5 |
| 20260506014516 | 45 | 338 | 2.0 | 6.0 | 0.08 | 0.49 | 0.49 | 85 | 1011.7 |
| 20260506013516 | 45 | 338 | 2.0 | 6.0 | 0.10 | 0.49 | 0.49 | 86 | 1011.4 |
| 20260506012516 | 45 | 315 | 2.0 | 4.0 | 0.08 | 0.45 | 0.45 | 86 | 1012.3 |
| 20260506011516 | 45 | 315 | 2.0 | 4.0 | 0.08 | 0.44 | 0.44 | 86 | 1011.7 |
| 20260506010536 | 45 | 23 | 2.0 | 6.0 | 0.07 | 0.43 | 0.43 | 86 | 1011.3 |
| 20260506005516 | 45 | 315 | 3.0 | 8.0 | 0.08 | 0.43 | 0.43 | 86 | 1011.2 |
| 20260506004516 | 46 | 293 | 2.0 | 7.0 | 0.07 | 0.41 | 0.41 | 86 | 1011.4 |
| 20260506003536 | 46 | 293 | 2.0 | 6.0 | 0.08 | 0.39 | 0.39 | 86 | 1011.3 |
| 20260506002516 | 46 | 0 | 3.0 | 5.0 | 0.09 | 0.37 | 0.37 | 86 | 1010.6 |
| 20260506001516 | 46 | 293 | 1.0 | 3.0 | 0.10 | 0.36 | 0.36 | 86 | 1010.9 |
| 20260506000536 | 46 | 0 | 2.0 | 6.0 | 0.12 | 0.36 | 0.36 | 87 | 1011.1 |
| 20260505235516 | 46 | 0 | 3.0 | 6.0 | 0.12 | 0.35 | 0.35 | 87 | 1010.5 |
| 20260505234516 | 47 | 293 | 2.0 | 6.0 | 0.11 | 0.34 | 0.34 | 88 | 1010.6 |
| 20260505233516 | 47 | 338 | 2.0 | 5.0 | 0.09 | 0.31 | 0.31 | 88 | 1010.3 |
| 20260505232516 | 47 | 293 | 2.0 | 5.0 | 0.06 | 0.28 | 0.28 | 88 | 1010.8 |
| 20260505231516 | 47 | 315 | 3.0 | 6.0 | 0.04 | 0.26 | 0.26 | 88 | 1010.3 |
| 20260505230517 | 48 | 338 | 2.0 | 5.0 | 0.03 | 0.24 | 0.24 | 88 | 1010.2 |
| 20260505225516 | 48 | 338 | 2.0 | 4.0 | 0.02 | 0.23 | 0.23 | 88 | 1009.9 |
| 20260505224516 | 48 | 338 | 3.0 | 5.0 | 0.02 | 0.23 | 0.23 | 88 | 1010.0 |
| 20260505223516 | 48 | 293 | 1.0 | 4.0 | 0.01 | 0.22 | 0.22 | 88 | 1009.5 |
| 20260505222516 | 48 | 0 | 1.0 | 3.0 | 0.01 | 0.22 | 0.22 | 88 | 1009.9 |
| 20260505221516 | 48 | 315 | 3.0 | 5.0 | 0.01 | 0.22 | 0.22 | 88 | 1010.1 |
| 20260505220536 | 48 | 315 | 3.0 | 7.0 | 0.00 | 0.21 | 0.21 | 88 | 1010.3 |
| 20260505215515 | 48 | 315 | 3.0 | 8.0 | 0.00 | 0.21 | 0.21 | 88 | 1010.0 |
| 20260505214515 | 48 | 0 | 2.0 | 5.0 | 0.00 | 0.21 | 0.21 | 88 | 1010.0 |
| 20260505213516 | 48 | 338 | 2.0 | 6.0 | 0.00 | 0.21 | 0.21 | 87 | 1010.4 |
| 20260505212536 | 49 | 338 | 2.0 | 8.0 | 0.00 | 0.21 | 0.21 | 88 | 1009.8 |
| 20260505211516 | 49 | 0 | 1.0 | 6.0 | 0.00 | 0.21 | 0.21 | 87 | 1010.4 |
| 20260505210515 | 49 | 315 | 2.0 | 4.0 | 0.00 | 0.21 | 0.21 | 87 | 1010.6 |
| 20260505205516 | 49 | 338 | 2.0 | 6.0 | 0.00 | 0.21 | 0.21 | 86 | 1010.8 |
| 20260505204515 | 49 | 338 | 4.0 | 7.0 | 0.00 | 0.21 | 0.21 | 85 | 1010.7 |
| 20260505203516 | 50 | 293 | 3.0 | 7.0 | 0.00 | 0.21 | 0.21 | 83 | 1010.7 |
| 20260505202536 | 50 | 338 | 3.0 | 6.0 | 0.00 | 0.21 | 0.21 | 82 | 1010.7 |
| 20260505201518 | 50 | 0 | 4.0 | 8.0 | 0.00 | 0.21 | 0.21 | 81 | 1010.4 |
| 20260505200517 | 50 | 0 | 3.0 | 7.0 | 0.00 | 0.21 | 0.21 | 81 | 1011.1 |
| 20260505195517 | 51 | 338 | 3.0 | 9.0 | 0.00 | 0.21 | 0.21 | 80 | 1010.9 |
| 20260505194539 | 52 | 293 | 3.0 | 7.0 | 0.00 | 0.21 | 0.21 | 78 | 1011.1 |
| 20260505193517 | 52 | 338 | 4.0 | 7.0 | 0.00 | 0.22 | 0.21 | 77 | 1010.8 |
| 20260505192520 | 53 | 0 | 2.0 | 6.0 | 0.00 | 0.22 | 0.21 | 77 | 1010.9 |
| 20260505191537 | 53 | 315 | 3.0 | 8.0 | 0.00 | 0.24 | 0.21 | 77 | 1010.6 |
| 20260505190516 | 53 | 315 | 3.0 | 8.0 | 0.00 | 0.32 | 0.21 | 77 | 1010.6 |
| 20260505185518 | 53 | 0 | 3.0 | 7.0 | 0.00 | 0.47 | 0.21 | 77 | 1010.3 |
| 20260505184538 | 53 | 0 | 4.0 | 8.0 | 0.00 | 0.52 | 0.21 | 77 | 1010.6 |
| 20260505183518 | 53 | 315 | 3.0 | 8.0 | 0.00 | 0.52 | 0.21 | 76 | 1010.9 |
| 20260505182517 | 53 | 0 | 3.0 | 6.0 | 0.00 | 0.52 | 0.21 | 77 | 1010.7 |
| 20260505181517 | 53 | 0 | 4.0 | 9.0 | 0.00 | 0.52 | 0.21 | 77 | 1011.0 |
| 20260505180517 | 54 | 0 | 2.0 | 5.0 | 0.00 | 0.52 | 0.21 | 77 | 1011.3 |
| 20260505175517 | 54 | 338 | 3.0 | 5.0 | 0.00 | 0.52 | 0.21 | 77 | 1011.4 |
| 20260505174519 | 54 | 315 | 2.0 | 6.0 | 0.00 | 0.52 | 0.21 | 77 | 1011.2 |
| 20260505173519 | 55 | 0 | 2.0 | 5.0 | 0.00 | 0.52 | 0.21 | 75 | 1010.9 |
| 20260505172517 | 55 | 0 | 3.0 | 7.0 | 0.00 | 0.52 | 0.21 | 72 | 1011.0 |
| 20260505171517 | 55 | 315 | 1.0 | 3.0 | 0.00 | 0.52 | 0.21 | 71 | 1011.1 |
| 20260505170517 | 56 | 315 | 2.0 | 5.0 | 0.00 | 0.52 | 0.21 | 72 | 1010.6 |
| 20260505165517 | 55 | 0 | 2.0 | 5.0 | 0.00 | 0.52 | 0.21 | 71 | 1010.5 |
| 20260505164537 | 55 | 338 | 2.0 | 4.0 | 0.00 | 0.52 | 0.21 | 72 | 1010.5 |
| 20260505163517 | 56 | 338 | 1.0 | 4.0 | 0.00 | 0.52 | 0.21 | 72 | 1010.7 |
| 20260505162517 | 55 | 0 | 3.0 | 6.0 | 0.00 | 0.52 | 0.21 | 72 | 1010.6 |
| 20260505161537 | 55 | 68 | 1.0 | 4.0 | 0.00 | 0.52 | 0.21 | 74 | 1010.6 |
| 20260505160519 | 55 | 23 | 2.0 | 7.0 | 0.00 | 0.52 | 0.21 | 73 | 1011.0 |
| 20260505152517 | 53 | 0 | 3.0 | 8.0 | 0.00 | 0.52 | 0.21 | 80 | 1010.2 |
| 20260505151517 | 53 | 90 | 3.0 | 6.0 | 0.00 | 0.52 | 0.21 | 84 | 1010.0 |
| 20260505150519 | 52 | 315 | 2.0 | 7.0 | 0.00 | 0.52 | 0.21 | 88 | 1009.4 |
| 20260505140517 | 50 | 338 | 3.0 | 6.0 | 0.02 | 0.52 | 0.21 | 87 | 1009.7 |
| 20260505124517 | 50 | 225 | 1.0 | 3.0 | 0.10 | 0.41 | 0.10 | 88 | 1011.7 |
| 20260505123557 | 50 | 315 | 2.0 | 4.0 | 0.06 | 0.37 | 0.06 | 88 | 1010.5 |
| 20260505122517 | 51 | 0 | 4.0 | 11.0 | 0.06 | 0.37 | 0.06 | 87 | 1009.7 |
| 20260505121517 | 51 | 23 | 4.0 | 8.0 | 0.02 | 0.33 | 0.02 | 86 | 1010.2 |
| 20260505120517 | 52 | 315 | 3.0 | 8.0 | 0.02 | 0.33 | 0.02 | 86 | 1009.7 |
| 20260505115517 | 53 | 338 | 3.0 | 9.0 | 0.02 | 0.33 | 0.02 | 86 | 1009.2 |
| 20260505114517 | 53 | 315 | 4.0 | 8.0 | 0.00 | 0.31 | 0.00 | 83 | 1008.8 |
| 20260505113517 | 54 | 315 | 3.0 | 6.0 | 0.00 | 0.31 | 0.00 | 82 | 1008.9 |
| 20260505112537 | 55 | 0 | 3.0 | 7.0 | 0.00 | 0.31 | 0.00 | 81 | 1008.6 |
| 20260505111516 | 56 | 338 | 4.0 | 8.0 | 0.00 | 0.31 | 0.00 | 82 | 1008.2 |
| 20260505110516 | 57 | 338 | 4.0 | 13.0 | 0.00 | 0.31 | 0.00 | 85 | 1007.8 |
| 20260505101517 | 62 | 338 | 4.0 | 11.0 | 0.00 | 0.31 | 0.00 | 76 | 1007.1 |
| 20260505100518 | 63 | 23 | 5.0 | 9.0 | 0.00 | 0.31 | 0.00 | 71 | 1006.9 |
| 20260505095517 | 64 | 90 | 1.0 | 5.0 | 0.00 | 0.31 | 0.00 | 69 | 1006.6 |
| 20260505094516 | 65 | 0.0 | 0.0 | 0.00 | 0.31 | 0.00 | 67 | 1006.0 | |
| 20260505093516 | 65 | 90 | 1.0 | 2.0 | 0.00 | 0.31 | 0.00 | 65 | 1006.0 |
| 20260505092517 | 65 | 113 | 1.0 | 3.0 | 0.00 | 0.31 | 0.00 | 65 | 1006.1 |
| 20260505091538 | 65 | 23 | 1.0 | 3.0 | 0.00 | 0.31 | 0.00 | 65 | 1006.3 |
| 20260505090537 | 65 | 68 | 1.0 | 3.0 | 0.00 | 0.31 | 0.00 | 65 | 1006.4 |
| 20260505085517 | 65 | 90 | 1.0 | 4.0 | 0.00 | 0.31 | 0.00 | 64 | 1006.3 |
| 20260505084516 | 66 | 338 | 1.0 | 3.0 | 0.00 | 0.31 | 0.00 | 64 | 1006.3 |
| 20260505083517 | 67 | 113 | 1.0 | 3.0 | 0.00 | 0.31 | 0.00 | 63 | 1006.3 |
| 20260505082536 | 68 | 0.0 | 3.0 | 0.00 | 0.31 | 0.00 | 64 | 1006.2 | |
| 20260505081516 | 68 | 338 | 1.0 | 3.0 | 0.00 | 0.31 | 0.00 | 63 | 1006.5 |
| 20260505080516 | 69 | 0 | 1.0 | 3.0 | 0.00 | 0.31 | 0.00 | 62 | 1006.7 |
| 20260505075516 | 69 | 158 | 4.0 | 14.0 | 0.00 | 0.31 | 0.00 | 63 | 1006.4 |
| 20260505074516 | 67 | 203 | 2.0 | 6.0 | 0.00 | 0.31 | 0.00 | 65 | 1006.9 |
| 20260505073516 | 67 | 338 | 1.0 | 3.0 | 0.00 | 0.31 | 0.00 | 64 | 1007.0 |
| 20260505072537 | 67 | 0 | 2.0 | 5.0 | 0.00 | 0.31 | 0.00 | 64 | 1006.8 |
| 20260505071516 | 68 | 338 | 3.0 | 7.0 | 0.00 | 0.31 | 0.00 | 66 | 1006.9 |
| 20260505070516 | 68 | 180 | 2.0 | 4.0 | 0.00 | 0.31 | 0.00 | 65 | 1006.0 |
| 20260505065516 | 68 | 180 | 3.0 | 7.0 | 0.00 | 0.31 | 0.00 | 64 | 1006.0 |
| 20260505064516 | 68 | 180 | 2.0 | 5.0 | 0.00 | 0.31 | 0.00 | 64 | 1006.2 |
| 20260505063516 | 69 | 203 | 1.0 | 3.0 | 0.00 | 0.31 | 0.00 | 63 | 1006.1 |
| 20260505062516 | 69 | 203 | 3.0 | 9.0 | 0.00 | 0.31 | 0.00 | 63 | 1006.0 |
| 20260505061516 | 69 | 158 | 3.0 | 9.0 | 0.00 | 0.31 | 0.00 | 63 | 1005.8 |
| 20260505060536 | 69 | 180 | 3.0 | 5.0 | 0.00 | 0.31 | 0.00 | 62 | 1005.7 |
| 20260505055516 | 69 | 180 | 3.0 | 8.0 | 0.00 | 0.31 | 0.00 | 62 | 1005.6 |
| 20260505054538 | 69 | 158 | 3.0 | 8.0 | 0.00 | 0.31 | 0.00 | 62 | 1005.4 |
| 20260505053516 | 69 | 158 | 3.0 | 9.0 | 0.00 | 0.31 | 0.00 | 61 | 1005.0 |
| 20260505052516 | 69 | 180 | 3.0 | 10.0 | 0.00 | 0.31 | 0.00 | 61 | 1004.9 |
| 20260505051516 | 70 | 180 | 3.0 | 11.0 | 0.00 | 0.31 | 0.00 | 61 | 1004.9 |
| 20260505050516 | 70 | 180 | 4.0 | 10.0 | 0.00 | 0.31 | 0.00 | 61 | 1004.8 |
| 20260505041517 | 70 | 180 | 5.0 | 11.0 | 0.00 | 0.31 | 0.31 | 59 | 1004.9 |
| 20260505040538 | 71 | 180 | 4.0 | 10.0 | 0.00 | 0.31 | 0.31 | 59 | 1005.1 |
| 20260505035516 | 71 | 203 | 4.0 | 9.0 | 0.00 | 0.31 | 0.31 | 58 | 1005.3 |
| 20260505034517 | 71 | 180 | 4.0 | 10.0 | 0.00 | 0.31 | 0.31 | 58 | 1005.4 |
| 20260505033516 | 71 | 180 | 3.0 | 10.0 | 0.00 | 0.31 | 0.31 | 58 | 1005.4 |
| 20260505032536 | 71 | 180 | 4.0 | 11.0 | 0.00 | 0.31 | 0.31 | 57 | 1005.4 |
| 20260505031518 | 71 | 180 | 3.0 | 7.0 | 0.00 | 0.31 | 0.31 | 58 | 1005.3 |
| 20260505030516 | 72 | 180 | 3.0 | 9.0 | 0.00 | 0.31 | 0.31 | 57 | 1005.2 |
| 20260505025618 | 72 | 225 | 3.0 | 8.0 | 0.00 | 0.31 | 0.31 | 57 | 1005.1 |